Date String (YYYY-MM-DD hh:mm:ss) UTC,Instrument flags,Ambient pressure (hPa),Sample flow (lpm),Bypass flow (lpm),Sample temperature (°C),Ambient temperature (°C),ASC tube jacket temperature (°C),LED temperature (°C),Box temperature (°C),Sample RH (%),Span deviation,Mass concentration (μg/m³),Mass concentration (μg/m³),Mass concentration (μg/m³)
DateTimeUTC,F1_M11,P_M11,Q1_M11,Q2_M11,T1_M11,T2_M11,T3_M11,T4_M11,T5_M11,U1_M11,ZSPAN_M11,X0_M11,X2_M11,X1_M11
2023-02-03 20:00:00,,0829.0,5.00,0.00,27.4,26.4,00.0,36.1,29.2,08.1,0000.0,0025.51,0011.91,0009.69
2023-02-03 20:01:00,,0829.0,5.01,0.00,27.4,26.4,00.0,36.1,29.2,07.5,0000.0,0026.57,0012.14,0009.87
2023-02-03 20:02:00,,0828.9,4.98,0.00,27.5,26.4,00.0,36.1,29.2,07.2,0000.0,0027.19,0012.18,0009.94
2023-02-03 20:03:00,,0828.9,5.04,0.00,27.5,26.4,00.0,36.1,29.2,06.9,0000.3,0027.01,0012.09,0009.88
2023-02-03 20:04:00,,0828.9,4.97,0.00,27.5,26.4,00.0,36.2,29.3,06.7,0000.9,0025.79,0011.82,0009.68
2023-02-03 20:05:00,,0828.9,5.05,0.00,27.5,26.4,00.0,36.2,29.3,06.5,0000.0,0024.87,0011.53,0009.43
2023-02-03 20:06:00,,0828.9,4.97,0.00,27.5,26.5,00.0,36.2,29.3,06.2,0000.0,0023.34,0010.91,0008.94
2023-02-03 20:07:00,,0828.9,4.97,0.00,27.5,26.5,00.0,36.2,29.3,06.5,0000.0,0021.33,0010.12,0008.30
2023-02-03 20:08:00,,0828.9,5.04,0.00,27.6,26.5,00.0,36.2,29.3,06.5,0000.0,0021.11,0009.60,0007.83
2023-02-03 20:09:00,,0828.9,4.97,0.00,27.6,26.5,00.0,36.2,29.4,06.5,0000.0,0020.92,0009.10,0007.40
2023-02-03 20:10:00,,0828.9,5.03,0.00,27.6,26.6,00.0,36.3,29.4,06.5,0000.0,0020.06,0008.49,0006.91
2023-02-03 20:11:00,,0829.1,5.00,0.00,27.6,26.6,00.0,36.3,29.4,06.9,0000.0,0017.91,0007.91,0006.46
2023-02-03 20:12:00,,0828.9,4.97,0.00,27.6,26.6,00.0,36.3,29.4,06.7,0000.0,0016.30,0007.43,0006.13
2023-02-03 20:13:00,,0829.3,5.04,0.00,27.7,26.6,00.0,36.3,29.5,07.1,0000.0,0015.02,0007.16,0005.90
2023-02-03 20:14:00,,0829.1,4.97,0.00,27.7,26.6,00.0,36.3,29.5,07.3,0000.0,0015.23,0007.02,0005.82
2023-02-03 20:15:00,,0829.1,4.98,0.00,27.7,26.7,00.0,36.3,29.5,07.4,0000.0,0015.20,0007.02,0005.81
2023-02-03 20:16:00,,0829.1,5.03,0.00,27.7,26.7,00.0,36.4,29.5,07.3,0000.0,0016.34,0007.16,0005.92
2023-02-03 20:17:00,,0828.7,4.98,0.00,27.7,26.7,00.0,36.4,29.5,07.9,0000.0,0017.75,0007.44,0006.16
2023-02-03 20:18:00,,0828.7,5.04,0.00,27.8,26.7,00.0,36.4,29.5,08.1,0000.0,0018.66,0007.81,0006.45
2023-02-03 20:19:00,,0829.0,4.97,0.00,27.8,26.7,00.0,36.4,29.5,08.7,0000.0,0018.55,0008.03,0006.69
2023-02-03 20:20:00,,0829.0,4.97,0.00,27.8,26.7,00.0,36.4,29.6,08.3,0000.0,0018.91,0008.18,0006.86
2023-02-03 20:21:00,,0829.1,5.04,0.00,27.8,26.8,00.0,36.5,29.6,06.9,0000.0,0019.22,0008.33,0006.97
2023-02-03 20:22:00,,0829.0,4.97,0.00,27.8,26.8,00.0,36.5,29.6,06.2,0000.0,0019.00,0008.19,0006.87
2023-02-03 20:23:00,,0828.8,5.05,0.00,27.8,26.8,00.0,36.5,29.6,06.1,0000.0,0018.85,0008.05,0006.73
2023-02-03 20:24:00,,0828.7,4.97,0.00,27.8,26.8,00.0,36.5,29.6,06.7,0000.0,0018.70,0007.92,0006.60
2023-02-03 20:25:00,,0828.8,4.98,0.00,27.8,26.8,00.0,36.5,29.6,06.6,0000.0,0017.96,0007.84,0006.44
2023-02-03 20:26:00,,0828.8,5.03,0.00,27.9,26.8,00.0,36.6,29.6,06.3,0000.0,0017.57,0007.58,0006.20
2023-02-03 20:27:00,,0828.9,4.96,0.00,27.9,26.8,00.0,36.6,29.7,06.8,0000.0,0016.38,0007.23,0005.95
2023-02-03 20:28:00,,0829.0,5.04,0.00,27.9,26.8,00.0,36.6,29.7,06.9,0000.0,0014.94,0006.87,0005.63
2023-02-03 20:29:00,,0829.2,4.97,0.00,27.9,26.8,00.0,36.6,29.7,07.3,0000.0,0014.57,0006.57,0005.35
2023-02-03 20:30:00,,0829.2,5.03,0.00,27.9,26.8,00.0,36.6,29.7,07.2,0000.0,0014.12,0006.20,0005.01
2023-02-03 20:31:00,,0829.1,4.97,0.00,27.9,26.8,00.0,36.6,29.7,07.6,0000.0,0013.36,0006.21,0004.98
2023-02-03 20:32:00,,0829.2,5.00,0.00,28.0,26.8,00.0,36.6,29.8,08.4,0000.0,0013.34,0006.45,0005.19
2023-02-03 20:33:00,,0828.7,5.00,0.00,28.0,26.8,00.0,36.7,29.8,08.0,0000.0,0014.49,0006.99,0005.63
2023-02-03 20:34:00,,0828.7,4.97,0.00,27.9,26.8,00.0,36.7,29.8,07.8,0000.0,0015.27,0007.42,0005.97
2023-02-03 20:35:00,,0828.9,5.04,0.00,28.0,26.8,00.0,36.7,29.8,08.5,0000.0,0015.87,0007.82,0006.29
2023-02-03 20:36:00,,0828.7,4.97,0.00,28.0,26.8,00.0,36.7,29.7,07.7,0000.0,0016.16,0007.95,0006.49
2023-02-03 20:37:00,,0828.7,5.04,0.00,28.0,26.8,00.0,36.7,29.7,07.7,0000.0,0017.59,0008.22,0006.73
2023-02-03 20:38:00,,0828.7,4.97,0.00,28.0,26.8,00.0,36.7,29.7,06.4,0000.0,0018.04,0008.16,0006.68
2023-02-03 20:39:00,,0828.8,5.04,0.00,28.0,26.8,00.0,36.7,29.7,05.7,0000.0,0017.12,0007.80,0006.42
2023-02-03 20:40:00,,0828.5,4.96,0.00,28.0,26.8,00.0,36.7,29.7,05.6,0000.0,0015.93,0007.35,0006.07
2023-02-03 20:41:00,,0828.8,5.04,0.00,28.0,26.8,00.0,36.7,29.7,05.3,0000.0,0015.44,0007.03,0005.82
2023-02-03 20:42:00,,0828.4,4.97,0.00,28.0,26.7,00.0,36.7,29.7,05.5,0000.0,0014.54,0006.51,0005.42
2023-02-03 20:43:00,,0828.6,5.02,0.00,28.0,26.7,00.0,36.7,29.7,06.1,0000.0,0013.06,0005.72,0004.78
2023-02-03 20:44:00,,0828.5,4.97,0.00,28.0,26.7,00.0,36.7,29.7,06.1,0000.0,0011.41,0004.86,0004.05
2023-02-03 20:45:00,,0828.5,5.03,0.00,28.0,26.7,00.0,36.8,29.6,05.8,0000.0,0010.09,0004.15,0003.47
2023-02-03 20:46:00,,0828.5,4.96,0.00,28.0,26.7,00.0,36.8,29.7,06.2,0000.0,0008.95,0003.42,0002.71
2023-02-03 20:47:00,,0828.5,5.03,0.00,28.0,26.7,00.0,36.8,29.7,06.6,0000.0,0007.87,0002.61,0001.80
2023-02-03 20:48:00,,0828.5,4.98,0.00,28.0,26.7,00.0,36.8,29.7,06.6,0000.0,0004.72,0001.48,0000.92
2023-02-03 20:49:00,,0828.5,5.02,0.00,28.0,26.6,00.0,36.8,29.7,06.5,0000.0,0002.23,0000.83,0000.41
2023-02-03 20:50:00,,0828.5,5.01,0.00,28.0,26.6,00.0,36.8,29.7,06.0,0000.0,0002.13,0000.79,0000.35
2023-02-03 20:51:00,,0828.4,5.00,0.00,28.0,26.6,00.0,36.8,29.7,05.9,0000.0,0002.11,0000.80,0000.35
2023-02-03 20:52:00,,0828.4,5.02,0.00,28.0,26.6,00.0,36.8,29.7,05.3,0000.0,0001.78,0000.77,0000.35
2023-02-03 20:53:00,,0828.5,4.97,0.00,28.0,26.5,00.0,36.8,29.7,04.9,0000.0,0001.76,0000.76,0000.35
2023-02-03 20:54:00,,0828.4,5.05,0.00,28.0,26.5,00.0,36.8,29.6,05.2,0000.0,0001.72,0000.75,0000.35
2023-02-03 20:55:00,,0828.4,4.96,0.00,27.9,26.5,00.0,36.8,29.7,05.4,0000.0,0001.83,0000.77,0000.35
2023-02-03 20:56:00,,0828.4,5.04,0.00,27.9,26.5,00.0,36.8,29.6,05.3,0000.0,0002.17,0000.73,0000.35
2023-02-03 20:57:00,,0828.4,4.96,0.00,27.9,26.5,00.0,36.8,29.6,05.7,0000.0,0002.17,0000.73,0000.35
2023-02-03 20:58:00,,0828.4,5.04,0.00,27.9,26.5,00.0,36.8,29.6,06.7,0000.0,0002.26,0000.78,0000.36
2023-02-03 20:59:00,,0828.3,4.96,0.00,27.9,26.5,00.0,36.8,29.6,06.3,0000.0,0002.38,0000.81,0000.36
